Time,TemperatureF,DewpointF,PressureIn,WindDirection,WindDirectionDegrees,WindSpeedMPH,WindSpeedGustMPH,Humidity,HourlyPrecipIn,Conditions,Clouds,dailyrainin,SoftwareType,DateUTC
2013-06-17 00:02:00,67.0,63.0,29.88,NNW,335,0.0,0.0,88,0.00,,,0.02,,2013-06-17 04:02:00,
2013-06-17 00:12:00,67.0,63.0,29.88,NNW,335,0.0,0.0,88,0.00,,,0.02,,2013-06-17 04:12:00,
2013-06-17 00:22:00,67.0,64.0,29.89,NNW,335,0.0,0.0,90,0.00,,,0.02,,2013-06-17 04:22:00,
2013-06-17 00:34:00,66.0,63.0,29.89,NNW,335,0.0,0.0,90,0.00,,,0.02,,2013-06-17 04:34:00,
2013-06-17 00:43:00,66.0,63.0,29.89,NNW,335,0.0,0.0,90,0.00,,,0.02,,2013-06-17 04:43:00,
2013-06-17 00:53:00,66.0,63.0,29.90,NNW,335,0.0,0.0,90,0.00,,,0.02,,2013-06-17 04:53:00,
2013-06-17 01:02:00,66.0,63.0,29.90,NNW,335,0.0,0.0,89,0.00,,,0.02,,2013-06-17 05:02:00,
2013-06-17 01:12:00,66.0,63.0,29.90,NNW,335,0.0,0.0,89,0.00,,,0.02,,2013-06-17 05:12:00,
2013-06-17 01:22:00,66.0,62.0,29.90,NNW,335,0.0,0.0,88,0.00,,,0.02,,2013-06-17 05:22:00,
2013-06-17 01:33:00,65.0,62.0,29.89,NNW,335,0.0,0.0,89,0.00,,,0.02,,2013-06-17 05:33:00,
2013-06-17 01:44:00,65.0,62.0,29.89,NNW,335,0.0,0.0,89,0.00,,,0.02,,2013-06-17 05:44:00,
2013-06-17 01:53:00,65.0,62.0,29.88,NNW,335,0.0,1.0,91,0.00,,,0.02,,2013-06-17 05:53:00,
2013-06-17 02:02:00,65.0,62.0,29.88,NNW,335,0.0,0.0,91,0.00,,,0.02,,2013-06-17 06:02:00,
2013-06-17 02:12:00,65.0,62.0,29.88,NNW,335,0.0,0.0,91,0.00,,,0.02,,2013-06-17 06:12:00,
2013-06-17 02:22:00,65.0,63.0,29.88,NNW,335,0.0,0.0,92,0.00,,,0.02,,2013-06-17 06:22:00,
2013-06-17 02:33:00,66.0,64.0,29.89,NNW,335,0.0,0.0,92,0.00,,,0.02,,2013-06-17 06:33:00,
2013-06-17 02:43:00,66.0,64.0,29.89,NNW,335,0.0,0.0,92,0.00,,,0.02,,2013-06-17 06:43:00,
2013-06-17 02:53:00,66.0,64.0,29.89,NNW,335,0.0,0.0,93,0.00,,,0.02,,2013-06-17 06:53:00,
2013-06-17 03:02:00,66.0,64.0,29.89,NNW,335,0.0,0.0,93,0.00,,,0.02,,2013-06-17 07:02:00,
2013-06-17 03:12:00,66.0,64.0,29.89,NNW,335,0.0,0.0,93,0.00,,,0.02,,2013-06-17 07:12:00,
2013-06-17 03:22:00,65.0,63.0,29.89,NNW,335,0.0,0.0,93,0.00,,,0.02,,2013-06-17 07:22:00,
2013-06-17 03:33:00,65.0,63.0,29.89,NNW,335,0.0,0.0,93,0.00,,,0.02,,2013-06-17 07:33:00,
2013-06-17 03:43:00,65.0,63.0,29.89,NNW,335,0.0,0.0,93,0.00,,,0.02,,2013-06-17 07:43:00,
2013-06-17 03:53:00,65.0,63.0,29.88,NNW,335,0.0,0.0,94,0.00,,,0.02,,2013-06-17 07:53:00,
2013-06-17 04:02:00,65.0,63.0,29.88,NNW,335,0.0,0.0,94,0.00,,,0.02,,2013-06-17 08:02:00,
2013-06-17 04:12:00,65.0,63.0,29.88,NNW,335,0.0,0.0,94,0.00,,,0.02,,2013-06-17 08:12:00,
2013-06-17 04:22:00,65.0,64.0,29.87,NNW,335,0.0,1.0,95,0.00,,,0.02,,2013-06-17 08:22:00,
2013-06-17 04:34:00,65.0,64.0,29.87,NNW,335,0.0,1.0,95,0.00,,,0.02,,2013-06-17 08:34:00,
2013-06-17 04:43:00,65.0,64.0,29.87,NNW,335,0.0,0.0,95,0.00,,,0.02,,2013-06-17 08:43:00,
2013-06-17 04:53:00,65.0,64.0,29.88,NNW,335,0.0,0.0,95,0.00,,,0.02,,2013-06-17 08:53:00,
2013-06-17 05:02:00,65.0,64.0,29.88,NNW,335,0.0,0.0,95,0.00,,,0.02,,2013-06-17 09:02:00,
2013-06-17 05:12:00,65.0,64.0,29.88,NNW,335,0.0,0.0,95,0.00,,,0.02,,2013-06-17 09:12:00,
2013-06-17 05:22:00,65.0,64.0,29.89,NNW,335,0.0,0.0,95,0.00,,,0.02,,2013-06-17 09:22:00,
2013-06-17 05:34:00,65.0,64.0,29.89,NNW,335,0.0,0.0,95,0.00,,,0.02,,2013-06-17 09:34:00,
2013-06-17 05:43:00,65.0,64.0,29.89,NNW,335,0.0,0.0,95,0.00,,,0.02,,2013-06-17 09:43:00,
2013-06-17 05:52:00,65.0,64.0,29.89,NNW,335,0.0,1.0,95,0.00,,,0.02,,2013-06-17 09:52:00,
2013-06-17 06:02:00,65.0,64.0,29.89,NNW,335,0.0,1.0,95,0.00,,,0.02,,2013-06-17 10:02:00,
2013-06-17 06:12:00,64.0,63.0,29.89,NNW,335,0.0,0.0,95,0.00,,,0.02,,2013-06-17 10:12:00,
2013-06-17 06:22:00,64.0,63.0,29.89,NNW,335,0.0,0.0,95,0.00,,,0.02,,2013-06-17 10:22:00,
2013-06-17 06:33:00,64.0,63.0,29.89,NNW,335,0.0,0.0,95,0.00,,,0.02,,2013-06-17 10:33:00,
2013-06-17 06:43:00,64.0,63.0,29.89,NNW,335,0.0,0.0,95,0.00,,,0.02,,2013-06-17 10:43:00,
2013-06-17 06:53:00,64.0,63.0,29.89,NNW,335,0.0,0.0,96,0.00,,,0.02,,2013-06-17 10:53:00,
2013-06-17 07:02:00,64.0,63.0,29.89,NNW,335,0.0,0.0,96,0.00,,,0.02,,2013-06-17 11:02:00,
2013-06-17 07:12:00,64.0,63.0,29.89,NNW,335,0.0,0.0,96,0.00,,,0.02,,2013-06-17 11:12:00,
2013-06-17 07:23:00,64.0,63.0,29.89,NNW,335,0.0,0.0,96,0.00,,,0.02,,2013-06-17 11:23:00,
2013-06-17 07:33:00,64.0,63.0,29.89,NNW,335,0.0,0.0,96,0.00,,,0.02,,2013-06-17 11:33:00,
2013-06-17 07:43:00,64.0,63.0,29.89,NNW,335,0.0,0.0,96,0.00,,,0.02,,2013-06-17 11:43:00,
2013-06-17 07:53:00,64.0,63.0,29.90,NNW,335,0.0,1.0,97,0.00,,,0.02,,2013-06-17 11:53:00,
2013-06-17 08:02:00,64.0,63.0,29.90,NNW,335,0.0,1.0,97,0.00,,,0.02,,2013-06-17 12:02:00,
2013-06-17 08:12:00,65.0,64.0,29.91,NNW,335,0.0,1.0,97,0.00,,,0.02,,2013-06-17 12:12:00,
2013-06-17 08:23:00,67.0,66.0,29.91,ESE,121,0.0,2.0,97,0.00,,,0.02,,2013-06-17 12:23:00,
2013-06-17 08:33:00,67.0,66.0,29.91,ESE,121,0.0,2.0,97,0.00,,,0.02,,2013-06-17 12:33:00,
2013-06-17 08:43:00,68.0,66.0,29.91,SE,138,0.0,2.0,94,0.00,,,0.02,,2013-06-17 12:43:00,
2013-06-17 08:53:00,70.0,67.0,29.91,SE,138,0.0,2.0,90,0.00,,,0.02,,2013-06-17 12:53:00,
2013-06-17 09:02:00,70.0,67.0,29.91,SE,138,0.0,2.0,90,0.00,,,0.02,,2013-06-17 13:02:00,
2013-06-17 09:12:00,71.0,66.0,29.91,SE,138,0.0,1.0,85,0.00,,,0.02,,2013-06-17 13:12:00,
2013-06-17 09:22:00,73.0,68.0,29.91,SE,138,0.0,2.0,83,0.00,,,0.02,,2013-06-17 13:22:00,
2013-06-17 09:32:00,73.0,68.0,29.91,SE,138,0.0,2.0,83,0.00,,,0.02,,2013-06-17 13:32:00,
2013-06-17 09:43:00,74.0,67.0,29.91,SE,138,0.0,1.0,80,0.00,,,0.02,,2013-06-17 13:43:00,
2013-06-17 09:52:00,74.0,67.0,29.91,SE,138,0.0,1.0,80,0.00,,,0.02,,2013-06-17 13:52:00,
2013-06-17 10:02:00,75.0,67.0,29.91,SE,138,0.0,1.0,76,0.00,,,0.02,,2013-06-17 14:02:00,
2013-06-17 10:12:00,76.0,67.0,29.91,SE,138,1.0,3.0,75,0.00,,,0.02,,2013-06-17 14:12:00,
2013-06-17 10:22:00,77.0,68.0,29.91,SE,138,0.0,2.0,74,0.00,,,0.02,,2013-06-17 14:22:00,
2013-06-17 10:34:00,77.0,68.0,29.91,SE,138,0.0,2.0,74,0.00,,,0.02,,2013-06-17 14:34:00,
2013-06-17 10:43:00,78.0,69.0,29.91,SE,138,0.0,2.0,73,0.00,,,0.02,,2013-06-17 14:43:00,
2013-06-17 10:53:00,78.0,69.0,29.91,SE,138,0.0,2.0,73,0.00,,,0.02,,2013-06-17 14:53:00,
2013-06-17 11:02:00,79.0,68.0,29.91,South,187,1.0,3.0,68,0.00,,,0.02,,2013-06-17 15:02:00,
2013-06-17 11:12:00,79.0,68.0,29.91,South,187,1.0,3.0,68,0.00,,,0.02,,2013-06-17 15:12:00,
2013-06-17 11:22:00,80.0,68.0,29.91,South,190,1.0,4.0,67,0.00,,,0.02,,2013-06-17 15:22:00,
2013-06-17 11:33:00,82.0,64.0,29.91,ESE,119,0.0,3.0,54,0.00,,,0.02,,2013-06-17 15:33:00,
2013-06-17 11:43:00,82.0,65.0,29.91,ESE,113,1.0,4.0,57,0.00,,,0.02,,2013-06-17 15:43:00,
2013-06-17 11:52:00,82.0,65.0,29.91,ESE,113,1.0,4.0,57,0.00,,,0.02,,2013-06-17 15:52:00,
2013-06-17 12:02:00,83.0,64.0,29.90,SSW,200,0.0,3.0,53,0.00,,,0.02,,2013-06-17 16:02:00,
2013-06-17 12:12:00,83.0,64.0,29.90,SSW,200,0.0,3.0,53,0.00,,,0.02,,2013-06-17 16:12:00,
2013-06-17 12:22:00,83.0,59.0,29.90,WSW,245,2.0,4.0,45,0.00,,,0.02,,2013-06-17 16:22:00,
2013-06-17 12:33:00,83.0,59.0,29.90,WNW,302,1.0,5.0,45,0.00,,,0.02,,2013-06-17 16:33:00,
2013-06-17 12:43:00,83.0,55.0,29.89,NNW,338,2.0,5.0,38,0.00,,,0.02,,2013-06-17 16:43:00,
2013-06-17 12:53:00,84.0,55.0,29.89,NNW,348,1.0,5.0,37,0.00,,,0.02,,2013-06-17 16:53:00,
2013-06-17 13:02:00,84.0,55.0,29.89,NNW,348,1.0,5.0,37,0.00,,,0.02,,2013-06-17 17:02:00,
2013-06-17 13:12:00,84.0,55.0,29.89,West,269,1.0,6.0,37,0.00,,,0.02,,2013-06-17 17:12:00,
2013-06-17 13:22:00,84.0,55.0,29.89,West,269,1.0,6.0,37,0.00,,,0.02,,2013-06-17 17:22:00,
2013-06-17 13:33:00,85.0,53.0,29.89,ESE,122,2.0,7.0,34,0.00,,,0.02,,2013-06-17 17:33:00,
2013-06-17 13:43:00,86.0,56.0,29.89,SSW,198,0.0,4.0,36,0.00,,,0.02,,2013-06-17 17:43:00,
2013-06-17 13:52:00,86.0,56.0,29.89,SSW,198,0.0,4.0,36,0.00,,,0.02,,2013-06-17 17:52:00,
2013-06-17 14:02:00,86.0,55.0,29.89,SSW,201,1.0,4.0,35,0.00,,,0.02,,2013-06-17 18:02:00,
2013-06-17 14:12:00,86.0,56.0,29.89,SSW,193,1.0,12.0,36,0.00,,,0.02,,2013-06-17 18:12:00,
2013-06-17 14:23:00,85.0,53.0,29.89,NNW,338,2.0,7.0,33,0.00,,,0.02,,2013-06-17 18:23:00,
2013-06-17 14:33:00,85.0,53.0,29.89,NNW,338,2.0,7.0,33,0.00,,,0.02,,2013-06-17 18:33:00,
2013-06-17 14:43:00,85.0,53.0,29.89,NNW,330,2.0,8.0,33,0.00,,,0.02,,2013-06-17 18:43:00,
2013-06-17 14:53:00,85.0,53.0,29.89,NNW,330,2.0,8.0,33,0.00,,,0.02,,2013-06-17 18:53:00,
2013-06-17 15:02:00,86.0,54.0,29.89,North,360,2.0,7.0,33,0.00,,,0.02,,2013-06-17 19:02:00,
2013-06-17 15:12:00,86.0,54.0,29.89,NNW,338,2.0,7.0,34,0.00,,,0.02,,2013-06-17 19:12:00,
2013-06-17 15:22:00,87.0,53.0,29.89,South,178,0.0,5.0,31,0.00,,,0.02,,2013-06-17 19:22:00,
2013-06-17 15:33:00,87.0,53.0,29.89,South,178,0.0,5.0,31,0.00,,,0.02,,2013-06-17 19:33:00,
2013-06-17 15:43:00,86.0,52.0,29.89,South,176,1.0,8.0,31,0.00,,,0.02,,2013-06-17 19:43:00,
2013-06-17 15:53:00,87.0,53.0,29.88,ESE,123,2.0,7.0,31,0.00,,,0.02,,2013-06-17 19:53:00,
2013-06-17 16:02:00,87.0,53.0,29.88,ESE,123,2.0,7.0,31,0.00,,,0.02,,2013-06-17 20:02:00,
2013-06-17 16:11:00,87.0,55.0,29.88,ESE,119,2.0,7.0,34,0.00,,,0.02,,2013-06-17 20:11:00,
2013-06-17 16:22:00,87.0,58.0,29.87,North,355,1.0,4.0,37,0.00,,,0.02,,2013-06-17 20:22:00,
2013-06-17 16:34:00,87.0,58.0,29.87,North,355,1.0,4.0,37,0.00,,,0.02,,2013-06-17 20:34:00,
2013-06-17 16:43:00,87.0,55.0,29.86,NE,44,1.0,4.0,34,0.00,,,0.02,,2013-06-17 20:43:00,
2013-06-17 16:52:00,87.0,55.0,29.86,NE,44,1.0,4.0,34,0.00,,,0.02,,2013-06-17 20:52:00,
2013-06-17 17:01:00,87.0,57.0,29.86,SE,146,2.0,7.0,36,0.00,,,0.02,,2013-06-17 21:01:00,
2013-06-17 17:12:00,87.0,58.0,29.86,South,174,2.0,7.0,38,0.00,,,0.02,,2013-06-17 21:12:00,
2013-06-17 17:22:00,87.0,58.0,29.86,South,174,2.0,7.0,38,0.00,,,0.02,,2013-06-17 21:22:00,
2013-06-17 17:33:00,87.0,61.0,29.85,South,184,1.0,6.0,42,0.00,,,0.02,,2013-06-17 21:33:00,
2013-06-17 17:43:00,87.0,58.0,29.85,SSE,156,1.0,7.0,38,0.00,,,0.02,,2013-06-17 21:43:00,
2013-06-17 17:52:00,87.0,58.0,29.85,SSE,156,1.0,7.0,38,0.00,,,0.02,,2013-06-17 21:52:00,
2013-06-17 18:01:00,87.0,58.0,29.85,South,188,2.0,4.0,37,0.00,,,0.02,,2013-06-17 22:01:00,
2013-06-17 18:11:00,86.0,56.0,29.84,SSE,148,2.0,6.0,36,0.00,,,0.02,,2013-06-17 22:11:00,
2013-06-17 18:22:00,85.0,57.0,29.84,South,182,1.0,5.0,38,0.00,,,0.02,,2013-06-17 22:22:00,
2013-06-17 18:34:00,85.0,57.0,29.84,South,182,1.0,5.0,38,0.00,,,0.02,,2013-06-17 22:34:00,
2013-06-17 18:43:00,85.0,57.0,29.84,SE,142,0.0,4.0,39,0.00,,,0.02,,2013-06-17 22:43:00,
2013-06-17 18:53:00,85.0,57.0,29.84,SSE,161,0.0,3.0,39,0.00,,,0.02,,2013-06-17 22:53:00,
2013-06-17 19:02:00,85.0,57.0,29.84,SSE,161,0.0,3.0,39,0.00,,,0.02,,2013-06-17 23:02:00,
2013-06-17 19:11:00,85.0,57.0,29.84,ESE,106,1.0,4.0,38,0.00,,,0.02,,2013-06-17 23:11:00,
2013-06-17 19:22:00,85.0,58.0,29.84,SE,131,1.0,4.0,40,0.00,,,0.02,,2013-06-17 23:22:00,
2013-06-17 19:32:00,85.0,58.0,29.84,SE,131,1.0,4.0,40,0.00,,,0.02,,2013-06-17 23:32:00,
2013-06-17 19:42:00,85.0,57.0,29.83,SE,140,2.0,5.0,38,0.00,,,0.02,,2013-06-17 23:42:00,
2013-06-17 19:53:00,85.0,57.0,29.83,SE,140,2.0,5.0,38,0.00,,,0.02,,2013-06-17 23:53:00,
2013-06-17 20:01:00,83.0,56.0,29.83,SE,138,1.0,4.0,40,0.00,,,0.02,,2013-06-18 00:01:00,
2013-06-17 20:12:00,83.0,58.0,29.84,SE,134,0.0,3.0,42,0.00,,,0.02,,2013-06-18 00:12:00,
2013-06-17 20:22:00,83.0,58.0,29.84,SE,134,0.0,3.0,42,0.00,,,0.02,,2013-06-18 00:22:00,
2013-06-17 20:33:00,82.0,57.0,29.83,SE,140,1.0,4.0,42,0.00,,,0.02,,2013-06-18 00:33:00,
2013-06-17 20:43:00,82.0,61.0,29.84,SE,140,0.0,3.0,49,0.00,,,0.02,,2013-06-18 00:43:00,
2013-06-17 20:52:00,80.0,61.0,29.85,NNE,23,1.0,4.0,53,0.00,,,0.02,,2013-06-18 00:52:00,
2013-06-17 21:01:00,80.0,61.0,29.85,NNE,23,1.0,4.0,53,0.00,,,0.02,,2013-06-18 01:01:00,
2013-06-17 21:12:00,76.0,62.0,29.86,West,273,0.0,4.0,63,0.02,,,0.04,,2013-06-18 01:12:00,
2013-06-17 21:23:00,72.0,64.0,29.84,NNE,28,0.0,2.0,75,0.04,,,0.06,,2013-06-18 01:23:00,
2013-06-17 21:34:00,72.0,64.0,29.84,NNE,28,0.0,2.0,75,0.04,,,0.06,,2013-06-18 01:34:00,
2013-06-17 21:44:00,70.0,63.0,29.85,ESE,103,0.0,3.0,79,0.04,,,0.06,,2013-06-18 01:44:00,
2013-06-17 21:53:00,69.0,62.0,29.84,ESE,109,0.0,3.0,78,0.04,,,0.06,,2013-06-18 01:53:00,
2013-06-17 22:02:00,69.0,62.0,29.84,ESE,109,0.0,3.0,78,0.04,,,0.06,,2013-06-18 02:02:00,
2013-06-17 22:11:00,69.0,63.0,29.85,NNW,336,3.0,6.0,82,0.02,,,0.06,,2013-06-18 02:11:00,
2013-06-17 22:22:00,69.0,63.0,29.85,NNW,336,3.0,6.0,82,0.02,,,0.06,,2013-06-18 02:22:00,
2013-06-17 22:34:00,69.0,63.0,29.85,SE,128,0.0,3.0,80,0.00,,,0.06,,2013-06-18 02:34:00,
2013-06-17 22:43:00,68.0,63.0,29.86,North,355,0.0,3.0,84,0.00,,,0.06,,2013-06-18 02:43:00,
2013-06-17 22:53:00,67.0,62.0,29.88,WNW,293,0.0,3.0,85,0.00,,,0.06,,2013-06-18 02:53:00,
2013-06-17 23:02:00,67.0,62.0,29.88,WNW,293,0.0,3.0,85,0.00,,,0.06,,2013-06-18 03:02:00,
2013-06-17 23:12:00,68.0,62.0,29.91,NNW,348,9.0,15.0,82,0.01,,,0.07,,2013-06-18 03:12:00,
2013-06-17 23:23:00,68.0,62.0,29.91,NNW,348,9.0,15.0,82,0.01,,,0.07,,2013-06-18 03:23:00,
2013-06-17 23:34:00,68.0,62.0,29.91,NNW,348,9.0,15.0,82,0.01,,,0.07,,2013-06-18 03:34:00,
2013-06-17 23:43:00,67.0,60.0,29.88,NNE,15,0.0,3.0,79,0.01,,,0.05,,2013-06-18 03:43:00,
2013-06-17 23:53:00,67.0,60.0,29.88,NNE,15,0.0,3.0,79,0.01,,,0.05,,2013-06-18 03:53:00,